Comox, British Columbia

8:23 AM PDT on May 23, 2017 (GMT -0700)
Comox

Weather History for CYQQ - July, 2013

Change the Weather History Date:

Saturday, July 6, 2013

  Actual Average Record
Temperature  
Mean Temperature 64 °F -  
Max Temperature 76 °F 72 °F 80 °F (2010)
Min Temperature 53 °F 54 °F 50 °F (1996)
Growing Degree Days 14 (Base 50)    
Moisture  
Dew Point 52 °F    
Average Humidity 65    
Maximum Humidity 82    
Minimum Humidity 37    
Precipitation  
Precipitation 0.00 in 0.04 in - ()
Sea Level Pressure  
Sea Level Pressure 29.97 in    
Wind  
Wind Speed 9 mph ()    
Max Wind Speed 17 mph    
Max Gust Speed 22 mph    
Visibility 19.5 miles    
Events      
Averages and records for this station are not official NWS values.
T = Trace of Precipitation, MM = Missing Value Source: Averaged Metar Reports

Daily Weather History Graph

Daily Weather History Graph

Search for Another Location

Airport or City:

Trip Planner

Search our weather history database for the weather conditions in past years. The results will help you decide how hot, cold, wet, or windy it might be!

Date:

Astronomy

Jul. 06, 2013 Rise Set
Actual Time 5:20 AM PDT 9:28 PM PDT
Civil Twilight 4:36 AM PDT 10:11 PM PDT
Nautical Twilight 3:35 AM PDT 11:12 PM PDT
Astronomical Twilight 1:56 AM PDT 12:52 AM PDT
Moon 4:16 AM PDT (7/6) 8:07 PM PDT (7/6)
Length of Visible Light 17h 34m
Length of Day
16h 08m
Waning Crescent, 2% of the Moon is Illuminated
Jul 6
Waning Crescent
Jul 8
New
Jul 15
First Quarter
Jul 22
Full
Jul 29
Last Quarter

Hourly Weather History & Observations

Time (PDT) Temp. Dew Point Humidity Pressure Visibility Wind Dir Wind Speed Gust Speed Precip Events Conditions
12:00 AM 60.8 °F 50.0 °F 68% 29.99 in 20.0 mi NNW 11.5 mph 17.3 mph N/A   Clear
1:00 AM 59.0 °F 50.0 °F 72% 30.00 in 20.0 mi NNW 11.5 mph - N/A   Clear
2:00 AM 57.2 °F 48.2 °F 72% 30.00 in 20.0 mi NNW 8.1 mph - N/A   Clear
3:00 AM 55.4 °F 50.0 °F 82% 30.01 in 20.0 mi NNW 9.2 mph - N/A   Clear
4:00 AM 55.4 °F 48.2 °F 77% 30.01 in 20.0 mi NW 5.8 mph - N/A   Clear
5:00 AM 54 °F 48 °F 72% 30.01 in 19 mi WNW 3.5 mph - -  
5:00 AM 53.6 °F 48.2 °F 82% 30.01 in 20.0 mi WNW 4.6 mph - N/A   Clear
6:00 AM 55.4 °F 48.2 °F 77% 30.02 in 20.0 mi WNW 5.8 mph - N/A   Clear
7:00 AM 57.2 °F 50.0 °F 77% 30.03 in 20.0 mi WNW 4.6 mph - N/A   Partly Cloudy
8:00 AM 60.8 °F 51.8 °F 72% 30.03 in 15.0 mi NNW 13.8 mph 20.7 mph N/A   Partly Cloudy
9:00 AM 60.8 °F 51.8 °F 72% 30.03 in 15.0 mi North 13.8 mph - N/A   Partly Cloudy
10:00 AM 62.6 °F 51.8 °F 68% 30.03 in 20.0 mi North 12.7 mph - N/A   Partly Cloudy
11:00 AM 63 °F 53 °F 60% 30.02 in 19 mi North 11.5 mph - -   Scattered Clouds
11:00 AM 62.6 °F 53.6 °F 72% 30.02 in 20.0 mi North 12.7 mph - N/A   Partly Cloudy
12:00 PM 66.2 °F 53.6 °F 64% 30.01 in 20.0 mi North 10.4 mph - N/A   Partly Cloudy
1:00 PM 68.0 °F 53.6 °F 60% 29.99 in 20.0 mi North 9.2 mph - N/A   Partly Cloudy
2:00 PM 69.8 °F 53.6 °F 56% 29.98 in 20.0 mi NNW 9.2 mph - N/A   Partly Cloudy
3:00 PM 73.4 °F 55.4 °F 53% 29.96 in 20.0 mi North 8.1 mph - N/A   Partly Cloudy
4:00 PM 73.4 °F 53.6 °F 50% 29.94 in 20.0 mi NNW 10.4 mph - N/A   Partly Cloudy
5:00 PM 75 °F 54 °F 37% 29.92 in 19 mi NNW 11.5 mph - -   Scattered Clouds
5:00 PM 75.2 °F 53.6 °F 47% 29.92 in 20.0 mi NNW 10.4 mph - N/A   Partly Cloudy
6:00 PM 75.2 °F 53.6 °F 47% 29.89 in 20.0 mi NNW 9.2 mph - N/A   Partly Cloudy
7:00 PM 75.2 °F 53.6 °F 47% 29.89 in 20.0 mi NNW 10.4 mph - N/A   Scattered Clouds
8:00 PM 69.8 °F 51.8 °F 53% 29.89 in 20.0 mi NNW 15.0 mph - N/A   Scattered Clouds
9:00 PM 66.2 °F 51.8 °F 60% 29.89 in 20.0 mi NNW 17.3 mph - N/A   Mostly Cloudy
10:00 PM 62.6 °F 51.8 °F 68% 29.90 in 20.0 mi NNW 16.1 mph - N/A   Mostly Cloudy
11:00 PM 60 °F 52 °F 69% 29.91 in 19 mi NNW 17.3 mph - -   Clear
11:00 PM 59.0 °F 51.8 °F 77% 29.91 in 20.0 mi NNW 16.1 mph 21.9 mph N/A   Mostly Cloudy